Hourly Data Report for October 01, 2015

All times are specified in Local Standard Time (LST). Add 1 hour to adjust for Daylight Saving Time where and when it is observed.

BATHURST A
NEW BRUNSWICK

47°37'47.000" N
65°44'20.000" W
58.80 m
8100505
71574
ZBF

Download Data

Hourly Data (October 2015)
Hourly Data Report for October 1, 2015
Temp Definition
°C
Dew Point Temp Definition
°C
Rel Hum Definition
%
Wind Dir Definition
10's deg

Wind Spd Definition
km/h
Visibility Definition
km
Stn Press Definition
kPa
Hmdx Definition


Wind Chill Definition


Weather Definition


TIME
00:00 Legend Double Dagger 8.0 7.6 97 1 13 9.7 101.01     Moderate Rain,Fog
01:00 Legend Double Dagger 8.0 7.6 97 36 11 12.9 101.00     Moderate Rain,Fog
02:00 Legend Double Dagger 7.9 7.5 97 35 10 12.9 101.00     Rain
03:00 Legend Double Dagger 7.7 7.0 95 34 16 16.1 101.05     Rain
04:00 Legend Double Dagger 7.8 6.8 93 34 13 19.3 101.06     Rain
05:00 Legend Double Dagger 7.9 6.7 92 34 13 24.1 101.14     Cloudy
06:00 Legend Double Dagger 7.9 6.2 89 34 12 24.1 101.25     LegendNANA
07:00 Legend Double Dagger 8.1 6.1 87 34 12 24.1 101.30     LegendNANA
08:00 Legend Double Dagger 8.6 5.7 82 35 12 24.1 101.40     Cloudy
09:00 Legend Double Dagger 8.8 5.7 81 34 11 24.1 101.51     LegendNANA
10:00 Legend Double Dagger 9.1 5.5 78 35 13 24.1 101.58     LegendNANA
11:00 Legend Double Dagger 10.4 4.4 66 1 16 24.1 101.66     Mostly Cloudy
12:00 Legend Double Dagger 11.4 3.5 58 36 17 24.1 101.68     LegendNANA
13:00 Legend Double Dagger 11.6 2.4 53 34 19 24.1 101.70     LegendNANA
14:00 Legend Double Dagger 12.4 1.5 47 36 21 24.1 101.72     Mainly Clear
15:00 Legend Double Dagger 12.4 2.3 50 1 19 24.1 101.75     LegendNANA
16:00 Legend Double Dagger 12.3 2.0 49 35 16 24.1 101.84     LegendNANA
17:00 Legend Double Dagger 12.1 2.1 50 36 11 24.1 101.88     Mostly Cloudy
18:00 Legend Double Dagger 10.4 2.8 59 34 8 24.1 101.93     LegendNANA
19:00 Legend Double Dagger 9.1 2.0 61 33 9 24.1 102.01     LegendNANA
20:00 Legend Double Dagger 8.5 1.7 62 32 10 24.1 102.09     Cloudy
21:00 Legend Double Dagger 8.4 1.3 61 34 10 24.1 102.07     LegendNANA
22:00 Legend Double Dagger 6.9 2.0 71 32 8 24.1 102.04     LegendNANA
23:00 Legend Double Dagger 6.3 2.4 76 32 9 24.1 102.06     Mostly Cloudy

Notes on Data Quality.

Legend

  • E = Estimated
  • M = Missing
  • NA = Not Available
  • ‡ = Partner data that is not subject to review by the National Climate Archives
Date modified: